TimeCST,TemperatureF,Dew PointF,Humidity,Sea Level PressureIn,VisibilityMPH,Wind Direction,Wind SpeedMPH,Gust SpeedMPH,PrecipitationIn,Events,Conditions,WindDirDegrees,DateUTC
12:00 AM,71,65,76,29.92,12,ESE,25.3,,,,Partly Cloudy,110,2012-11-29 06:00:00
12:00 AM,69.8,60.8,73,30.06,-9999.0,ESE,13.8,25.3,N/A,,Clear,110,2012-11-29 06:00:00
1:00 AM,69.8,60.8,73,30.06,-9999.0,ESE,9.2,-,N/A,,Clear,110,2012-11-29 07:00:00
2:00 AM,69.8,60.8,73,30.03,-9999.0,ENE,9.2,-,N/A,,Clear,70,2012-11-29 08:00:00
3:00 AM,71,59,56,29.83,12,East,11.5,,,,Mostly Cloudy,80,2012-11-29 09:00:00
3:00 AM,69.8,59.0,68,30.01,-9999.0,East,11.5,23.0,N/A,,Clear,80,2012-11-29 09:00:00
4:00 AM,69.8,59.0,68,29.99,-9999.0,East,15.0,27.6,N/A,,Clear,90,2012-11-29 10:00:00
5:00 AM,69.8,60.8,73,30.00,-9999.0,East,17.3,28.8,N/A,,Clear,100,2012-11-29 11:00:00
6:00 AM,69.8,59.0,68,29.97,-9999.0,ESE,15.0,28.8,N/A,,Clear,110,2012-11-29 12:00:00
7:00 AM,71.6,59.0,64,30.03,6.2,ESE,16.1,27.6,N/A,,Mostly Cloudy,110,2012-11-29 13:00:00
8:00 AM,71.6,60.8,69,30.08,6.2,ESE,15.0,31.1,N/A,,Mostly Cloudy,120,2012-11-29 14:00:00
9:00 AM,74,60,52,,12,East,9.2,,,,Overcast,90,2012-11-29 15:00:00
9:00 AM,73.4,60.8,65,30.09,6.2,East,9.2,-,N/A,,Mostly Cloudy,90,2012-11-29 15:00:00
10:00 AM,75.2,60.8,61,30.08,6.2,ENE,8.1,-,N/A,,Mostly Cloudy,70,2012-11-29 16:00:00
11:00 AM,77.0,60.8,57,30.06,6.2,East,9.2,-,N/A,,Mostly Cloudy,80,2012-11-29 17:00:00
12:00 PM,76,61,51,29.88,12,East,6.9,,,,Overcast,90,2012-11-29 18:00:00
12:00 PM,77.0,60.8,57,30.05,6.2,East,6.9,-,N/A,,Mostly Cloudy,90,2012-11-29 18:00:00
12:40 PM,73.4,62.6,69,30.04,6.2,WSW,8.1,-,N/A,,Mostly Cloudy,250,2012-11-29 18:40:00
1:00 PM,73.4,62.6,69,30.04,6.2,WSW,5.8,-,N/A,,Scattered Clouds,250,2012-11-29 19:00:00
2:00 PM,73.4,62.6,69,30.02,6.2,SE,4.6,-,N/A,,Mostly Cloudy,140,2012-11-29 20:00:00
3:00 PM,71,63,70,29.88,12,SE,8.1,,,Rain,Light Rain,140,2012-11-29 21:00:00
3:00 PM,71.6,62.6,73,30.04,6.2,SE,8.1,-,N/A,Rain,Light Rain,140,2012-11-29 21:00:00
4:00 PM,68.0,64.4,88,30.04,3.1,East,5.8,-,N/A,Rain,Light Rain,80,2012-11-29 22:00:00
5:00 PM,66.2,64.4,94,30.03,6.2,East,3.5,-,N/A,Rain,Light Rain,80,2012-11-29 23:00:00
6:00 PM,69,63,76,29.85,12,East,5.8,,,,Scattered Clouds,80,2012-11-30 00:00:00
6:00 PM,68.0,62.6,83,30.04,6.2,East,5.8,-,N/A,,Mostly Cloudy,80,2012-11-30 00:00:00
7:00 PM,68.0,64.4,88,30.08,6.2,ENE,5.8,-,N/A,,Mostly Cloudy,70,2012-11-30 01:00:00
8:00 PM,68.0,62.6,83,30.08,6.2,East,4.6,-,N/A,,Scattered Clouds,90,2012-11-30 02:00:00
9:00 PM,68,63,78,29.94,12,ENE,3.5,,,,Scattered Clouds,70,2012-11-30 03:00:00
9:00 PM,68.0,62.6,83,30.09,6.2,ENE,3.5,-,N/A,,Scattered Clouds,70,2012-11-30 03:00:00
10:00 PM,69.8,62.6,78,30.09,6.2,ESE,8.1,-,N/A,,Scattered Clouds,110,2012-11-30 04:00:00
11:00 PM,69.8,62.6,78,30.08,6.2,East,11.5,-,N/A,,Scattered Clouds,80,2012-11-30 05:00:00